Погода в Новой Чернещине

Украина / Харьковская область     49°03′54″N   35°37′43″E
темп.,
°C
ветер,
м/с
пор.,
м/с
влажн.,
%
обл.,
%
осадки,
мм/ч
давл.,
гПа
погр.,
м
7 мая, пт
пт700:00+9ссз4889100 0.3 1012372
03:00+9сз3792100 1.6 1013503
06:00+7сз37940 0.0 1014223
09:00+12ссз23670 0.0 1015630
12:00+16з124799 0.0 10161588
15:00+18юз3439100 0.0 10152181
18:00+17ю244898 0.0 1014661
21:00+13юв4855100 0.0 1014111
8 мая, сб
сб800:00+13ююв61458100 0.0 1013336
03:00+12ююв61471100 0.0 1011377
06:00+13ю8166885 0.0 1010602
09:00+12ю71685100 0.3 1010759
12:00+13ююз71287100 0.9 1010653
15:00+11зсз4994100 4.1 1011463
18:00+10зсз71186100 3.4 1012767
21:00+8з3886100 3.6 1014320
9 мая, вс
вс900:00+7зсз51079100 0.1 1015511
03:00+6ссз71381100 0.1 10161154
06:00+5ссз61187100 0.0 1018797
09:00+9ссз711645 0.0 10201108
12:00+12ссз811445 0.0 10211959
15:00+13ссз81042100 0.0 10222610
18:00+12ссз710535 0.1 10231788
21:00+7ссз49675 0.1 1025177
10 мая, пн
пн1000:00+5ссз49764 0.0 1026161
03:00+4ссз410801 0.0 1027188
06:00+5ссз411790 0.0 1028262
09:00+11с710530 0.0 10271471
12:00+14с811435 0.0 10261892
15:00+15с101242100 0.0 10241926
18:00+13с71253100 0.0 1024873
21:00+12ссв71355100 0.0 1024951
11 мая, вт
вт1100:00+11ссв71458100 0.0 1023689
03:00+10ссв6136592 0.0 1022484
06:00+9ссв6157419 0.0 1023459
09:00+14ссв710675 0.0 1022587
12:00+18ссв89615 0.0 10211029
15:00+20св81057100 0.0 10201676
18:00+16всв8117494 0.6 10221187
21:00+10всв49900 0.8 1023246